User: anonymous   Login
Location: Unspecified
(0.0000°N, 0.0000°E)
Time: 05:21:24
(UTC+00:00)
Language:

GONETS M 05 - Orbit

View from above orbital plane
View from above orbital plane
View from above satellite
View from above satellite

Ground track
Ground track

The orbit data is extracted from the following two-line orbital elements,

1 39249U 13048A   18146.49981769 +.00000015 +00000-0 +36263-4 0  9996
2 39249 082.4847 018.4688 0015711 150.0044 210.1939 12.42878793213356
Epoch (UTC): 26 May 2018 11:59:44
Eccentricity: 0.0015711
inclination: 82.4847°
perigee height: 1482 km
apogee height: 1507 km
right ascension of ascending node: 18.4688°
argument of perigee: 150.0044°
revolutions per day: 12.42878793
mean anomaly at epoch: 210.1939°
orbit number at epoch: 21335

The dashed part of the orbit path shows where the satellite is in the earth's shadow,  

DLR